SCP
0 0 0 0 0 0 0 0 0 0 0 0 0 0 0 0 0 0 0 0 0 0 0 0 0 0 0 0 0 0 0 0 0 0 0 0 0 0 0 0 0 0 0
0 0 0 0 0 0 0 0 0 0 0 0 0 0 0 0 0 0 0 0 0 0 0 0 0 0 0 0 0 0 0 0 0 0 0 0 0 0 0 0 0 0 0
0 0 0 0 0 0 0 0 0 0 0 0 0 0 0 0 0 0 0 0 0 0 0 0 0 0 0 0 0 0 0 0 0 0 0 0 0 0 0 0 0 0 0
0 0 0 0 0 0 0 0 0 0 0 0 0 0 0 0 0 0 0 0 0 0 0 0 0 0 0 0 0 0 0 0 0 0 0 0 0 0 0 0 0 0 0
0 0 0 0 0 0 0 0 0 0 0 0 0 0 0 0 0 0 0 0 0 0 0 0 0 0 0 0 0 0 0 0 0 0 0 0 0 0 0 0 0 0 0
0 0 0 0 0 0 0 0 0 0 0 0 0 0 0 0 0 0 0 0 0 0 0 0 0 0 0 0 0 0 0 0 0 0 0 0 0 0 0 0 0 0 0
0 0 0 0 0 0 0 0 0 0 0 0 0 0 0 0 0 0 0 0 0 0 0 0 0 0 0 0 0 0 0 0 0 0 0 0 0 0 0 0 0 0 0
0 0 0 0 0 0 0 0 0 0 0 0 0 0 0 0 0 0 0 0 0 0 0 0 0 0 0 0 0 0 0 0 0 0 0 0 0 0 0 0 0 0 0
0 0 0 0 0 0 0 0 0 0 0 0 0 0 0 0 0 0 0 0 0 0 0 0 0 0 0 0 0 0 0 0 0 0 0 0 0 0 0 0 0 0 0
0 0 0 0 0 0 0 0 0 0 0 0 0 0 0 0 0 0 0 0 0 0 0 0 0 0 0 0 0 0 0 0 0 0 0 0 0 0 0 0 0 0 0
0 0 0 0 0 0 0 0 0 0 0 0 0 0 0 0 0 0 0 0 0 0 0 0 0 0 0 0 0 0 0 0 0 0 0 0 0 0 0 0 0 0 0
0 0 0 0 0 0 0 0 0 0 0 0 0 0 0 0 0 0 0 0 0 0 0 0 0 0 0 0 0 0 0 0 0 0 0 0 0 0 0 0 0 0 0
0 0 0 0 0 0 0 0 0 0 0 0 0 0 0 0 0 0 0 0 0 0 0 0 0 0 0 0 0 0 0 0 0 0 0 0 0 0 0 0 0 0 0
0 0 0 0 0 0 0 0 0 0 0 0 0 0 0 0 0 0 0 0 0 0 0 0 0 0 0 0 0 0 0 0 0 0 0 0 0 0 0 0 0 0 0
0 0 0 0 0 0 0 0 0 0 0 0 0 0 0 0 0 0 0 0 0 0 0 0 0 0 0 0 0 0 0 0 0 0 0 0 0 0 0 0 0 0 0
0 0 0 0 0 0 0 0 0 0 0 0 0 0 0 0 0 0 0 0 0 0 0 0 0 0 0 0 0 0 0 0 0 0 0 0 0 0 0 0 0 0 0
0 0 0 0 0 0 0 0 0 0 0 0 0 0 0 0 0 0 0 0 0 0 0 0 0 0 0 0 0 0 0 0 0 0 0 0 0 0 0 0 0 0 0
0 0 0 0 0 0 0 0 0 0 0 0 0 0 0 0 0 0 0 0 0 0 0 0 0 0 0 0 0 0 0 0 0 0 0 0 0 0 0 0 0 0 0
0 0 0 0 0 0 0 0 0 0 0 0 0 0 0 0 0 0 0 0 0 0 0 0 0 0 0 0 0 0 0 0 0 0 0 0 0 0 0 0 0 0 0
0 0 0 0 0 0 0 0 0 0 0 0 0 0 0 0 0 0 0 0 0 0 0 0 0 0 0 0 0 0 0 0 0 0 0 0 0 0 0 0 0 0 0
0 0 0 0 0 0 0 0 0 0 0 0 0 0 0 0 0 0 0 0 0 0 0 0 0 0 0 0 0 0 0 0 0 0 0 0 0 0 0 0 0 0 0
0 0 0 0 0 0 0 0 0 0 0 0 0 0 0 0 0 0 0 0 0 0 0 0 0 0 0 0 0 0 0 0 0 0 0 0 0 0 0 0 0 0 0
0 0 0 0 0 0 0 0 0 0 0 0 0 0 0 0 0 0 0 0 0 0 0 0 0 0 0 0 0 0 0 0 0 0 0 0 0 0 0 0 0 0 0
0 0 0 0 0 0 0 0 0 0 0 0 0 0 0 0 0 0 0 0 0 0 0 0 0 0 0 0 0 0 0 0 0 0 0 0 0 0 0 0 0 0 0
0 0 0 0 0 0 0 0 0 0 0 0 0 0 0 0 0 0 0 0 0 0 0 0 0 0 0 0 0 0 0 0 0 0 0 0 0 0 0 0 0 0 0
0 0 0 0 0 0 0 0 0 0 0 0 0 0 0 0 0 0 0 0 0 0 0 0 0 0 0 0 0 0 0 0 0 0 0 0 0 0 0 0 0 0 0
Wind_Speed
2 2 2 2 3 4 4 5 5 5 6 6 6 6 5 5 4 4 3 3 3 2 2 2 2 1 1 0 0 0 1 1 2 1 1 1 2 2 2 2 3 3 3
2 2 3 3 3 4 4 5 6 6 5 6 6 6 5 5 4 5 4 3 3 3 2 2 2 1 1 0 0 1 1 1 2 2 2 2 2 2 2 2 3 3 3
2 3 3 3 4 4 5 5 6 6 6 5 6 6 5 5 4 4 4 3 3 3 3 2 2 2 1 1 0 0 1 0 1 2 2 2 2 2 2 2 3 3 3
3 4 4 4 4 4 5 5 6 6 6 6 5 5 5 4 4 4 4 4 3 3 2 2 2 2 2 2 1 1 1 1 1 2 2 2 2 2 2 2 2 2 2
3 4 4 4 4 4 5 5 5 5 6 6 6 5 5 4 4 5 4 4 4 3 2 1 1 2 3 3 2 2 1 1 2 2 2 2 2 2 2 2 2 1 2
3 4 4 5 5 5 5 5 5 5 5 5 5 5 5 3 6 8 6 4 4 4 3 1 1 1 1 2 2 2 3 3 3 2 2 2 3 2 2 2 3 2 1
3 3 4 5 5 5 6 6 6 5 5 5 5 5 4 4 7 7 8 5 4 3 3 2 1 1 2 2 2 4 2 1 3 3 3 3 4 4 5 3 2 2 2
3 4 4 5 5 5 6 6 5 5 5 5 5 5 4 5 7 7 8 5 4 3 3 3 3 2 2 3 3 3 2 2 2 1 2 2 3 4 4 4 4 3 2
3 4 5 6 6 6 6 6 5 5 4 4 4 5 5 4 7 7 7 4 3 3 3 3 4 3 5 5 4 3 2 1 3 4 4 4 5 7 7 5 4 3 2
4 4 4 6 7 7 7 5 4 4 5 5 4 4 5 4 7 8 8 4 3 3 2 3 5 6 7 6 4 4 3 1 1 2 4 5 4 4 6 4 4 3 2
3 3 4 5 5 6 5 4 5 5 5 5 4 4 4 5 7 9 9 4 4 4 3 3 3 8 8 8 7 5 5 4 3 3 2 2 2 2 2 2 2 3 3
2 2 3 4 4 5 6 5 5 6 6 5 4 4 3 4 6 8 10 9 8 5 4 3 4 8 8 8 6 7 8 5 3 3 2 2 1 1 1 2 2 2 2
1 1 2 3 3 5 6 6 5 5 5 5 4 4 3 3 5 10 11 11 11 6 4 8 8 9 8 6 8 9 6 4 3 3 3 2 2 2 2 2 2 2 2
1 1 2 3 3 4 4 5 5 6 5 5 5 5 4 3 4 4 4 5 8 6 4 7 9 9 7 6 5 4 3 4 4 4 3 2 2 3 2 2 2 1 1
0 1 1 2 3 3 3 4 5 5 6 6 5 5 5 5 7 10 6 4 4 5 4 2 2 2 3 3 2 3 3 3 4 3 3 3 3 3 3 3 2 2 2
0 0 1 1 2 2 2 2 4 5 8 9 8 7 6 8 8 10 11 11 11 11 6 4 4 4 5 5 5 4 4 4 4 4 4 4 4 4 4 3 3 3 3
1 0 0 1 2 2 2 3 2 3 5 7 8 9 9 8 9 10 11 11 11 11 6 4 5 5 5 5 5 5 5 5 4 5 5 5 5 4 4 4 4 4 4
1 0 0 1 1 2 2 2 2 3 2 2 5 8 9 9 8 9 10 8 6 7 4 5 5 5 5 6 6 5 5 5 5 5 5 5 5 5 5 5 5 6 5
1 0 0 0 0 1 1 1 2 2 2 2 1 3 6 7 7 8 8 5 4 5 4 4 5 5 5 5 5 6 6 6 6 5 6 6 6 6 6 6 6 9 7
1 1 1 0 0 1 1 1 1 2 2 2 2 2 2 3 3 3 4 4 4 5 5 5 5 5 5 5 5 5 5 6 6 6 6 6 6 6 7 8 7 6 7
2 1 1 1 1 1 1 1 2 2 2 2 2 3 4 3 3 3 3 4 4 5 5 5 5 5 5 5 5 6 7 6 6 6 6 6 7 7 6 7 7 7 6
1 1 1 1 1 1 1 1 1 2 2 2 2 2 5 2 2 3 3 3 3 3 3 3 4 4 4 5 5 6 6 6 6 6 7 6 6 7 7 7 7 7 7
1 2 1 1 1 1 1 1 1 1 2 2 2 2 2 2 2 3 3 3 2 2 2 3 3 3 4 4 5 5 6 6 6 7 7 6 6 7 7 7 8 8 8
2 2 2 2 1 1 1 1 1 1 1 1 2 2 2 2 2 2 2 2 2 2 2 3 4 5 5 4 4 4 5 5 5 6 8 7 7 7 7 7 8 9 8
1 1 2 2 1 1 1 1 1 1 1 2 2 2 2 2 2 2 2 2 2 3 3 3 3 4 6 7 6 5 8 11 9 6 6 7 7 8 7 8 7 8 8
1 2 2 1 1 1 1 1 2 2 2 2 2 2 2 2 2 2 2 2 2 3 3 3 4 5 5 5 7 9 11 12 12 12 7 6 7 7 8 7 9 8 8
Wind_Direction
203 175 154 154 147 144 144 145 142 140 142 143 143 137 133 130 126 123 123 129 130 125 121 135 141 135 134 61 319 240 239 232 217 131 104 105 110 108 80 65 61 52 44
185 152 145 135 131 133 139 140 138 138 136 138 135 131 130 129 128 131 137 135 136 146 151 146 156 148 145 129 178 222 226 229 182 166 141 126 112 120 104 85 62 59 45
164 153 147 149 148 147 144 136 134 132 129 127 127 131 133 133 133 135 139 136 138 148 155 162 167 157 168 184 196 221 232 216 141 145 141 124 109 109 100 78 67 51 45
174 167 174 174 164 152 144 138 137 136 134 133 130 131 133 134 135 134 135 132 129 126 129 146 159 170 187 195 202 215 195 146 130 131 130 126 122 110 115 120 94 57 43
190 186 188 165 148 142 139 136 134 135 136 133 129 129 130 133 143 144 142 141 138 131 124 130 152 183 199 194 189 191 170 151 142 141 138 132 145 150 164 147 128 101 61
205 201 174 156 152 149 145 140 135 133 131 132 139 142 144 151 162 160 151 146 148 151 153 147 145 151 178 173 150 160 169 168 172 164 164 173 179 169 142 140 130 136 171
217 198 174 166 162 158 150 145 148 147 141 141 147 148 151 164 169 167 163 148 152 161 165 166 165 146 119 87 80 71 56 82 184 170 174 188 178 176 157 147 147 142 153
216 198 181 171 167 159 154 157 155 148 150 151 156 157 158 176 180 176 164 142 148 164 175 178 174 165 157 142 116 86 52 30 53 130 176 184 176 162 159 151 141 115 92
226 205 190 178 170 165 168 168 160 153 155 157 159 163 166 180 188 182 161 142 156 175 184 183 179 184 196 167 140 128 92 25 56 101 120 133 143 148 142 123 129 126 135
243 220 196 182 177 176 174 166 156 155 159 156 162 169 171 181 195 193 173 154 166 177 183 199 205 202 206 187 159 159 171 188 89 79 73 72 75 120 138 138 147 139 142
254 210 194 185 180 173 162 157 152 151 151 158 166 175 180 192 206 205 190 170 176 180 189 200 220 218 215 206 186 180 197 175 146 128 110 89 75 72 81 101 124 143 151
248 205 191 178 171 161 156 156 156 154 158 168 173 184 196 203 210 217 208 203 190 183 195 198 212 220 220 216 201 200 202 172 141 143 145 154 151 148 124 110 113 114 131
256 200 180 165 162 163 162 161 161 165 171 178 182 193 200 200 216 224 220 214 208 192 196 205 211 218 220 218 212 211 197 164 158 174 189 194 185 165 138 116 96 95 79
255 194 170 163 162 167 169 170 173 179 181 184 191 197 198 199 206 213 215 215 214 205 195 213 216 218 211 207 213 211 177 175 179 189 190 179 152 150 160 158 153 140 123
337 181 171 176 172 175 185 192 190 197 192 188 194 190 191 208 215 208 196 196 186 184 165 161 168 177 190 189 186 186 183 189 197 177 178 177 177 177 178 165 161 158 173
347 220 184 176 175 177 180 195 211 210 214 214 207 199 211 219 220 216 215 215 210 200 183 184 195 199 204 204 203 202 199 202 199 190 189 192 192 192 189 176 174 183 200
315 264 198 181 183 185 185 188 204 221 222 221 220 219 221 222 223 220 220 219 217 208 204 200 203 204 207 206 205 205 208 205 194 194 200 200 196 194 191 194 194 201 213
352 353 66 199 195 195 198 200 199 198 204 224 230 229 229 230 228 224 220 212 215 210 204 207 211 208 206 207 209 211 212 203 199 202 203 202 198 195 198 203 202 206 211
343 344 360 291 217 209 207 201 204 208 211 213 215 232 228 228 229 228 218 205 205 212 211 212 211 210 210 209 210 210 208 208 206 203 206 204 201 199 206 208 208 218 214
329 311 312 245 227 219 214 211 211 213 215 217 222 223 202 192 204 214 210 203 209 214 213 216 215 212 212 211 211 210 211 212 209 210 209 206 203 202 208 209 209 212 215
321 307 305 286 242 234 228 229 227 221 221 228 234 234 220 207 215 217 218 217 218 219 217 216 215 214 213 211 211 212 214 216 213 211 209 207 204 206 209 209 210 212 214
320 312 301 283 269 254 246 227 225 230 232 239 247 248 245 226 217 224 227 229 226 224 220 217 221 219 212 210 211 212 216 218 214 211 210 208 207 209 208 208 210 210 211
324 323 318 306 288 278 273 242 238 244 251 256 258 248 244 235 233 235 237 237 233 231 228 225 228 229 224 219 216 214 218 220 216 209 207 208 207 207 207 211 210 209 212
317 314 315 314 311 302 287 279 273 271 269 266 264 260 252 249 248 249 248 244 238 237 231 230 233 237 234 230 226 223 226 228 218 213 209 210 210 210 209 211 212 213 213
315 313 312 310 311 311 311 307 301 295 289 283 279 279 276 268 265 268 267 258 252 251 250 246 243 243 243 240 238 234 238 239 232 220 210 212 215 214 211 212 212 211 212
308 307 305 301 296 297 296 295 293 292 287 287 284 282 281 277 274 273 274 271 269 267 264 257 254 255 256 249 245 246 250 250 245 236 223 214 215 216 212 216 213 212 211